GFSFLT2_925_spd_036.txt.gz
Wind_Speed
30 29 25 25 28 27 31 31 33 33 34 32 31 29 26 25 23 21 20 20 21 21 20 18 15 14 12 11 11 12 10 11
39 35 32 28 25 25 27 29 29 31 33 29 29 27 24 23 21 19 18 18 18 17 17 16 14 12 10 9 10 12 9 8
38 38 34 36 27 20 22 25 23 27 29 26 24 20 18 17 17 18 18 17 16 16 15 13 10 9 8 8 9 7 7 7
32 36 45 28 23 25 20 19 19 22 20 20 16 16 15 16 16 15 15 15 16 15 13 11 9 6 6 7 6 6 7 7
36 42 32 33 27 25 17 16 23 23 25 17 13 14 17 13 14 13 15 15 13 12 10 7 7 6 5 6 6 7 7 6
33 35 32 30 29 21 22 20 22 22 20 18 16 12 12 12 12 12 13 10 12 9 8 9 8 7 6 6 5 6 6 5
26 27 29 27 25 22 20 19 18 21 20 15 13 12 12 11 12 11 11 10 9 8 8 7 6 6 4 4 5 6 7 5
29 30 30 30 23 14 13 15 15 14 13 13 13 12 11 11 11 11 10 8 8 7 6 6 4 4 4 5 5 5 6 5
29 28 25 22 20 15 14 13 13 14 13 12 12 11 13 12 11 11 10 9 9 8 7 5 3 3 3 3 4 5 4 4
30 24 19 16 11 10 12 14 15 14 12 11 11 12 13 13 13 11 9 10 9 8 5 3 2 2 1 2 2 2 2 2
30 22 16 13 13 13 12 14 14 13 13 12 12 13 13 13 11 11 12 10 9 7 5 2 1 1 1 1 2 3 2 1
25 21 16 14 14 13 15 14 14 13 13 13 14 13 14 13 13 14 13 11 9 7 5 3 2 1 3 4 4 4 4 4
23 23 21 19 18 18 17 17 15 13 13 13 15 14 16 15 14 16 13 11 9 8 6 4 2 3 6 6 5 5 6 6
26 25 23 21 18 17 17 17 16 15 14 13 14 15 16 17 16 16 13 12 11 9 7 4 4 5 8 5 4 8 8 8
28 26 23 22 21 19 17 14 11 14 14 14 15 17 17 17 16 16 16 14 11 10 10 9 6 7 9 6 4 4 3 8
29 27 25 24 23 22 22 20 16 14 15 15 15 15 16 17 17 17 16 13 12 12 10 10 10 8 7 8 6 6 4 4
29 28 27 26 25 23 22 22 18 15 18 19 18 17 18 19 19 18 17 15 13 12 11 11 9 7 9 6 8 6 7 7
30 30 25 21 19 21 23 21 20 18 22 22 20 20 21 21 20 20 16 14 14 13 11 11 9 8 6 8 8 7 8 9
29 28 29 27 28 28 35 25 24 24 24 25 25 27 28 27 24 19 18 17 15 13 14 13 12 10 9 9 8 8 8 9
29 29 30 33 26 31 30 24 24 24 26 28 35 35 34 28 24 21 19 20 17 14 11 14 10 11 11 10 8 9 9 10

GFSFLT2_925_spd_039.txt.gz
Wind_Speed
31 24 25 27 28 30 30 29 32 31 30 30 30 27 25 24 24 24 23 23 22 20 17 15 13 12 11 13 15 13 11 10
34 29 25 25 25 25 29 30 31 31 28 27 28 24 23 23 22 22 21 21 20 17 15 12 11 10 11 12 9 10 9 8
37 34 30 28 29 23 24 28 30 30 28 24 24 19 17 16 17 19 19 18 16 14 12 10 9 9 10 10 9 9 8 8
36 36 35 33 28 29 26 23 21 25 23 25 18 17 14 13 18 17 16 15 14 12 11 9 4 6 4 8 8 7 7 7
29 38 34 35 31 28 27 23 19 22 22 11 19 15 16 15 16 15 15 13 12 11 6 3 5 5 5 6 6 6 6 5
27 25 36 29 29 27 25 21 17 20 15 17 19 18 13 12 14 14 13 11 11 8 6 6 6 5 6 5 6 6 5 4
26 26 32 29 29 24 25 20 11 16 18 15 16 12 12 12 11 12 11 10 10 8 7 6 4 4 4 4 5 5 4 2
28 29 29 28 29 29 21 20 15 15 13 11 10 12 13 12 12 12 10 10 8 7 7 6 4 2 3 4 4 3 2 2
30 27 24 26 27 24 23 20 18 13 11 13 14 13 14 12 12 11 11 9 9 8 8 6 4 2 2 2 1 1 2 2
28 28 35 31 34 22 15 13 10 14 20 16 17 15 14 12 12 12 11 11 10 10 9 6 4 3 2 1 1 1 1 1
29 26 26 21 13 11 10 11 14 21 21 15 17 15 14 13 11 11 12 10 10 10 8 6 4 3 3 2 2 4 3 1
31 27 25 20 19 17 15 16 16 19 14 17 14 14 14 13 11 11 13 11 10 10 8 5 4 2 4 5 5 5 4 5
29 24 23 21 18 18 17 17 18 16 17 17 16 14 14 14 13 13 13 12 12 11 9 8 6 2 5 10 10 9 7 8
29 26 23 22 20 19 18 19 21 19 16 13 14 15 15 16 14 15 15 14 13 12 11 8 5 4 5 9 6 7 11 12
29 28 25 23 20 19 18 18 14 16 18 17 17 18 17 17 16 15 15 15 15 15 11 9 6 6 7 6 4 5 6 12
30 28 26 25 23 21 21 21 18 19 19 17 17 17 17 17 16 15 16 16 15 13 12 9 6 6 7 9 10 8 4 5
32 30 28 26 29 25 22 21 19 19 19 17 19 16 18 18 17 18 17 16 14 13 12 10 10 7 9 11 9 10 10 8
32 31 30 28 24 23 20 17 20 15 15 18 20 18 19 21 21 20 18 20 16 15 13 10 7 10 11 11 10 11 11 12
30 31 31 30 26 23 31 28 22 19 20 22 20 22 22 23 25 26 24 21 16 16 14 13 11 12 11 10 11 13 12 12
30 30 30 31 27 31 30 25 34 32 27 24 23 24 23 29 29 27 23 19 18 17 15 10 10 12 11 10 11 13 12 12

GFSFLT2_925_spd_045.txt.gz
Wind_Speed
20 22 24 25 25 30 33 34 34 33 33 33 32 32 32 30 27 27 26 25 23 21 20 18 19 19 19 19 21 18 21 21
20 18 16 34 31 31 34 33 33 32 31 31 30 29 29 28 27 26 24 22 20 19 18 18 20 17 15 18 20 23 19 18
16 18 17 31 27 27 30 29 31 30 28 27 28 28 28 27 26 25 22 19 18 16 15 19 20 16 15 13 16 15 13 14
18 29 29 31 27 27 32 30 31 31 28 26 28 25 25 26 24 22 19 16 15 13 12 12 9 11 10 11 13 12 12 11
29 30 31 31 36 30 27 32 32 31 28 26 23 22 24 23 22 19 16 13 12 11 10 10 12 9 7 9 13 10 8 9
34 33 33 34 34 33 26 30 35 31 23 29 24 23 24 22 19 18 16 14 13 8 11 10 9 7 7 9 8 9 7 7
33 36 39 35 35 36 32 33 34 23 29 28 22 23 22 19 18 16 14 13 12 10 11 9 7 6 7 8 9 8 8 4
30 33 39 39 39 38 34 33 31 26 25 24 21 19 18 17 14 12 14 13 12 12 7 7 8 4 6 7 6 6 2 5
26 32 38 39 37 36 36 34 27 15 21 21 16 13 10 12 10 15 14 16 14 12 10 10 10 5 4 5 6 4 2 2
25 30 36 33 33 36 38 34 25 18 25 23 16 10 12 11 14 15 17 15 16 18 15 12 10 10 8 6 6 2 5 2
28 34 36 33 33 37 34 32 34 31 27 26 14 14 12 15 16 17 17 19 16 14 14 14 14 11 9 10 8 7 8 7
31 35 35 35 32 33 34 36 34 36 26 17 18 19 21 17 18 17 20 20 16 16 17 13 16 14 11 14 11 14 14 11
28 28 36 38 33 32 29 34 37 32 25 29 26 24 20 22 23 18 22 21 21 20 18 20 12 12 13 6 13 17 17 15
30 33 37 37 34 36 31 35 34 36 34 27 24 25 23 26 24 20 27 22 21 23 23 19 18 13 7 4 1 5 15 16
36 37 40 42 37 29 27 26 25 29 32 31 28 26 27 29 24 22 25 22 23 25 26 22 17 16 19 7 1 3 3 12
38 40 41 38 34 29 30 24 24 29 34 31 31 34 31 25 23 26 22 22 24 25 25 23 16 18 16 16 10 5 3 1
37 36 36 36 36 34 35 32 33 31 31 32 30 28 26 27 26 25 24 25 26 23 26 24 24 18 16 9 11 11 10 4
38 38 37 36 40 41 37 30 36 33 31 32 25 27 29 30 27 24 27 25 25 23 22 20 26 19 14 12 13 8 9 8
42 41 39 39 42 44 43 41 40 38 39 37 33 29 28 26 29 26 26 26 26 24 22 23 23 24 18 16 14 11 10 9
43 42 41 42 44 48 46 46 41 39 39 40 34 34 31 33 32 28 24 26 28 25 24 25 22 24 20 18 16 14 9 6

GFSFLT2_925_spd_048.txt.gz
Wind_Speed
19 24 30 22 32 24 33 36 34 35 35 36 38 36 34 32 30 30 28 25 22 20 20 22 24 25 17 15 17 18 19 19
24 23 26 27 31 33 23 33 33 33 35 36 37 35 33 30 30 28 26 23 22 18 21 20 20 23 21 21 18 16 16 17
26 36 29 33 32 26 28 29 32 33 35 35 34 33 31 30 28 26 24 22 19 19 18 17 17 19 19 16 15 14 14 16
34 35 37 38 38 31 29 31 33 33 34 33 33 32 31 30 27 25 22 20 17 18 15 12 12 12 13 15 13 14 13 13
30 29 32 39 40 36 28 34 35 35 33 34 32 31 31 29 27 24 22 19 16 15 10 8 11 9 11 14 12 11 12 11
27 36 39 37 40 40 36 37 37 36 35 32 32 32 30 29 26 23 21 18 15 12 13 11 9 10 10 10 11 10 9 11
28 34 37 37 33 38 39 41 39 37 35 32 32 31 30 27 23 21 19 17 13 11 12 10 9 7 9 9 10 10 9 7
33 34 35 37 38 36 38 40 37 37 35 31 31 31 28 24 22 19 17 17 15 13 12 12 10 5 8 9 8 8 4 6
30 37 38 41 38 35 38 32 33 37 34 28 30 27 25 22 19 17 18 17 13 16 14 13 11 8 7 10 9 5 3 4
14 31 38 35 37 37 39 34 36 34 30 27 26 22 19 17 13 16 18 16 18 18 16 14 14 11 10 10 8 6 5 4
18 25 33 37 42 37 33 33 35 29 30 27 20 15 15 15 14 16 17 22 22 21 18 18 17 15 13 10 10 11 9 5
25 24 28 33 35 32 27 31 36 30 28 28 24 11 11 14 16 16 18 21 21 22 23 19 16 16 15 13 14 12 10 8
20 31 32 34 34 34 30 28 34 33 30 30 25 18 16 18 18 18 19 25 25 24 20 19 17 18 14 9 14 16 15 13
25 25 36 33 32 31 33 34 37 40 36 37 35 27 20 23 22 22 23 26 27 25 25 23 17 19 11 4 1 5 14 17
31 30 35 35 38 36 29 30 29 32 35 38 39 29 29 29 27 25 26 28 31 29 29 29 26 22 20 9 2 4 2 11
31 35 35 37 33 32 30 27 27 32 32 35 37 31 30 26 28 27 27 32 33 30 29 30 27 24 17 20 7 6 3 2
34 34 36 34 37 33 31 27 27 27 31 34 37 38 35 32 30 29 31 34 34 29 28 31 31 27 20 11 17 9 9 4
34 35 35 38 38 36 33 32 30 33 36 39 40 40 40 35 34 34 34 34 28 28 28 31 31 26 21 19 17 8 13 9
36 37 36 37 38 40 42 40 35 36 42 40 38 38 39 37 35 35 29 29 29 28 30 31 31 25 27 27 22 20 16 12
40 41 41 43 43 43 45 44 37 41 42 39 42 41 40 35 33 32 31 30 30 29 29 30 29 27 27 20 23 16 14 10

GFSFLT2_925_spd_054.txt.gz
Wind_Speed
24 31 26 22 24 35 35 31 35 37 39 35 34 31 33 35 35 34 31 28 29 32 32 30 27 26 25 26 25 24 25 26
24 20 19 16 16 29 36 34 32 37 39 36 35 32 32 34 35 35 34 31 32 32 29 27 26 24 23 23 23 22 23 24
23 12 17 16 16 27 30 30 31 36 38 37 34 32 33 36 35 35 32 31 29 28 27 25 24 23 20 20 21 21 22 23
24 19 24 26 38 41 32 30 33 35 38 35 35 34 34 35 34 34 32 31 28 27 28 27 25 23 20 18 18 20 20 21
29 29 35 41 34 43 37 30 29 30 38 35 36 35 33 33 34 35 32 29 28 25 25 24 23 21 18 17 17 18 19 19
27 35 38 37 36 37 40 34 29 33 35 36 37 35 34 33 32 32 33 27 24 24 23 21 20 18 16 16 15 16 17 17
31 36 32 42 35 37 40 36 30 33 39 38 38 36 34 32 31 29 28 25 22 22 21 19 18 18 15 13 12 13 13 14
29 35 32 34 33 39 39 40 34 29 32 34 39 37 35 32 29 27 25 21 20 20 18 18 17 14 13 12 12 11 11 10
27 30 35 35 33 37 38 37 37 40 33 32 37 38 34 32 29 27 24 21 20 19 18 16 15 14 13 12 12 11 9 8
21 28 35 33 33 33 32 33 33 37 38 37 39 38 34 30 27 25 24 20 19 17 15 15 14 13 13 14 13 10 8 7
23 22 32 33 32 33 34 34 32 31 37 40 39 37 33 28 25 24 23 21 19 18 16 14 15 14 14 13 11 10 9 7
13 16 30 35 34 31 29 36 34 33 36 39 39 37 30 25 23 23 21 22 20 19 17 17 17 16 14 12 12 13 13 12
10 17 25 32 34 32 30 34 31 29 33 37 32 30 23 24 23 20 23 24 20 20 20 20 17 18 13 10 12 14 16 17
12 19 28 31 35 24 26 29 36 31 23 31 29 27 23 24 22 18 23 25 19 22 23 22 20 19 9 4 1 7 21 23
17 20 23 27 29 25 21 24 32 31 21 27 28 28 21 17 20 18 20 17 18 21 24 25 23 22 22 9 2 4 2 11
19 21 24 29 31 32 30 22 30 28 27 24 29 36 30 21 17 15 16 16 18 19 22 27 26 25 23 24 15 6 4 2
22 23 25 26 33 32 35 30 31 30 34 30 32 32 37 30 24 20 20 21 21 21 26 29 31 29 25 15 22 12 11 3
28 26 31 31 33 34 37 35 33 35 33 33 33 35 38 39 32 29 27 23 24 25 28 30 32 34 31 29 22 11 14 7
32 32 31 34 34 34 36 39 39 39 41 36 35 37 39 44 42 41 37 35 30 30 30 32 31 30 36 37 35 33 25 22
34 33 31 37 38 39 39 42 43 42 41 40 41 40 41 43 44 44 42 38 36 35 34 31 30 33 36 33 37 35 29 25